Flag for Canada Weather past 2 weeks in Stephenville, Newfoundland and Labrador, Canada

Now
46 °F

Passing clouds.


Feels Like: 43 °F
Forecast: 42 / 63 °F
Wind: 7 mph from Northeast

Location: Stephenville

Current Time: Sep 18, 2014 at 3:12:38 AM

Latest Report: Sep 18, 2014 at 2:30 AM


Visibility: 15 mi

Pressure: 29.96 "Hg

Humidity: 82%

Dew point: 41 °F

Location of StephenvilleLocation

Historic Weather in Stephenville — Graph

°F

Stephenville temperature yesterday

Maximum temperature yesterday: 63 °F (at 12:30 PM)
Minimum temperature yesterday: 54 °F (at 12:30 AM)
Average temperature yesterday: 58 °F

Past Weeks' High & Low Weather Summary

 TemperatureHumidityPressure
High75 °F (Sep 3, 1:30 PM)94% (Sep 3, 8:30 PM)30.49 "Hg (Sep 3, 8:30 PM)
Low45 °F (Sep 9, 5:30 AM)38% (Sep 5, 5:30 PM)29.61 "Hg (Sep 3, 4:30 PM)
Average59 °F72%30.00 "Hg
* Reported Sep 3 2:30 AM — Sep 18 2:30 AM, Stephenville, Weather by CustomWeather, © 2014

Note: Actual official high and low records may vary slightly from our data, if they occured in-between our weather recording intervals... More about our weather records

Advertising

Stephenville weather history for previous 24 hours

 ConditionsComfort  
Time TempWeatherWind HumidityBarometerVisibility
2:30 AM
Sep 18
46 °FPassing clouds.7 mph82%29.96 "Hg15 mi
1:30 AM48 °FPassing clouds.5 mph82%29.96 "Hg15 mi
12:30 AM52 °FPassing clouds.8 mph72%29.96 "Hg15 mi
11:30 PM
Sep 17
54 °FPassing clouds.8 mph77%29.95 "Hg15 mi
11:20 PMN/APassing clouds.9 mphN/AN/A15 mi
10:30 PM55 °FOvercast.7 mph72%29.94 "Hg15 mi
9:30 PM55 °FPassing clouds.8 mph77%29.93 "Hg15 mi
8:30 PM55 °FPassing clouds.5 mph77%29.91 "Hg15 mi
7:30 PM59 °FScattered clouds.17 mph72%29.89 "Hg15 mi
7:17 PMN/AScattered clouds.22 mphN/AN/A15 mi
6:30 PM61 °FPartly sunny.14 mph68%29.89 "Hg15 mi
5:30 PM61 °FScattered clouds.20 mph68%29.87 "Hg15 mi
4:30 PM61 °FScattered clouds.17 mph72%29.86 "Hg15 mi
3:30 PM61 °FSprinkles. Partly sunny.15 mph77%29.85 "Hg15 mi
3:20 PMN/ASprinkles.14 mphN/AN/A15 mi
2:30 PM63 °FPartly sunny.17 mph73%29.85 "Hg15 mi
1:30 PM63 °FPartly sunny.17 mph73%29.85 "Hg15 mi
12:30 PM63 °FPartly sunny.15 mph73%29.85 "Hg15 mi
11:30 AM59 °FPartly sunny.12 mph77%29.86 "Hg12 mi
10:30 AM57 °FPartly sunny.14 mph82%29.86 "Hg12 mi
9:30 AM57 °FPartly sunny.16 mph77%29.86 "Hg15 mi
8:30 AM55 °FPartly sunny.17 mph82%29.85 "Hg15 mi
7:30 AM55 °FSprinkles. Passing clouds.16 mph82%29.85 "Hg12 mi
6:30 AM55 °FSprinkles. Fog.17 mph77%29.85 "Hg5 mi
6:20 AMN/ASprinkles.14 mphN/AN/A15 mi
5:30 AM55 °FPassing clouds.16 mph77%29.84 "Hg15 mi
4:30 AM55 °FPassing clouds.18 mph72%29.85 "Hg15 mi
3:30 AM55 °FPassing clouds.17 mph72%29.87 "Hg15 mi
Weather by CustomWeather, © 2014

See weather overviewHow to use our weather pages